DW5805 Weather Reports


time (UTC)temp
F
wind
direction
speed
knots
gust
knots
rain 1hr
in
rain 24hr
in
rain mn
in
humidity
%
barometer
mb
20190426102704 52 229 2.6 4.3 0.00 0.00 0.00 50 1017.7
20190426102205 52 217 3.5 4.3 0.00 0.00 0.00 50 1017.6
20190426101706 52 214 3.5 4.3 0.00 0.00 0.00 50 1017.6
20190426101205 52 227 2.6 4.3 0.00 0.00 0.00 50 1017.5
20190426100705 52 238 2.6 4.3 0.00 0.00 0.00 49 1017.5
20190426100205 52 232 2.6 4.3 0.00 0.00 0.00 49 1017.6
20190426095704 52 242 2.6 6.1 0.00 0.00 0.00 49 1017.6
20190426095205 52 239 3.5 6.1 0.00 0.00 0.00 49 1017.7
20190426094704 52 244 3.5 6.1 0.00 0.00 0.00 50 1017.7
20190426094205 52 234 3.5 6.1 0.00 0.00 0.00 50 1017.6
20190426093705 52 236 3.5 7.8 0.00 0.00 0.00 50 1017.6
20190426093204 51 242 3.5 7.8 0.00 0.00 0.00 50 1017.7
20190426092705 51 250 3.5 7.8 0.00 0.00 0.00 51 1017.6
20190426092206 51 229 1.7 3.5 0.00 0.00 0.00 51 1017.7
20190426091204 52 302 0.9 2.6 0.00 0.00 0.00 51 1017.7
20190426090704 52 302 0.9 2.6 0.00 0.00 0.00 50 1017.7
20190426090205 52 302 1.7 2.6 0.00 0.00 0.00 50 1017.7
20190426085704 52 302 1.7 2.6 0.00 0.00 0.00 50 1017.7
20190426085205 52 302 1.7 2.6 0.00 0.00 0.00 51 1017.7
20190426084704 52 302 1.7 2.6 0.00 0.00 0.00 50 1017.7
20190426084205 53 302 1.7 3.5 0.00 0.00 0.00 49 1017.8
20190426083704 53 302 1.7 7.0 0.00 0.00 0.00 48 1018.0
20190426083207 52 302 2.6 7.0 0.00 0.00 0.00 49 1018.0
20190426082705 52 302 2.6 7.0 0.00 0.00 0.00 50 1018.0
20190426082205 52 272 0.9 4.3 0.00 0.00 0.00 51 1018.0
20190426081705 52 179 1.7 5.2 0.00 0.00 0.00 52 1018.0
20190426081204 52 177 1.7 5.2 0.00 0.00 0.00 52 1017.8
20190426080705 52 175 1.7 3.5 0.00 0.00 0.00 51 1018.0
20190426080205 53 175 1.7 3.5 0.00 0.00 0.00 51 1018.0
20190426075705 53 175 0.9 4.3 0.00 0.00 0.00 50 1017.8
20190426075204 53 173 1.7 4.3 0.00 0.00 0.00 50 1018.0
20190426074705 53 173 1.7 3.5 0.00 0.00 0.00 50 1017.8
20190426074205 54 190 1.7 2.6 0.00 0.00 0.00 49 1018.0
20190426073704 54 211 1.7 2.6 0.00 0.00 0.00 49 1018.0
20190426073207 54 211 0.9 1.7 0.00 0.00 0.00 48 1018.0
20190426072705 54 197 0.0 3.5 0.00 0.00 0.00 48 1018.0
20190426072205 54 196 0.9 3.5 0.00 0.00 0.00 47 1018.0
20190426071704 55 196 0.9 3.5 0.00 0.00 0.00 46 1017.8
20190426071205 55 199 0.9 2.6 0.00 0.00 0.00 46 1017.8
20190426070705 55 219 0.9 2.6 0.00 0.00 0.00 45 1017.8
20190426070205 55 212 0.9 2.6 0.00 0.00 0.00 44 1017.8
20190426065705 56 212 0.9 2.6 0.00 0.00 0.00 43 1017.8
20190426065205 56 249 0.9 5.2 0.00 0.00 0.00 42 1017.8
20190426064705 57 249 1.7 5.2 0.00 0.00 0.00 41 1017.8
20190426064204 58 213 1.7 7.8 0.00 0.00 0.00 40 1017.7
20190426063705 58 175 2.6 9.6 0.00 0.00 0.00 39 1017.7
20190426063205 59 227 5.2 9.6 0.00 0.00 0.00 39 1017.7
20190426062705 59 306 5.2 9.6 0.00 0.00 0.00 40 1017.7
20190426062205 59 268 5.2 9.6 0.00 0.00 0.00 40 1017.7
20190426061705 59 285 6.1 11.3 0.00 0.00 0.00 40 1017.7
20190426061205 59 285 6.1 11.3 0.00 0.00 0.00 40 1017.7
20190426060704 59 271 4.3 7.0 0.00 0.00 0.00 39 1018.0
20190426060204 59 273 3.5 6.1 0.00 0.00 0.00 38 1017.8
20190426055704 60 264 2.6 10.4 0.00 0.00 0.00 38 1017.7
20190426055205 60 295 3.5 10.4 0.00 0.00 0.00 37 1017.7
20190426054705 60 251 4.3 10.4 0.00 0.00 0.00 36 1017.8
20190426054209 60 313 4.3 12.2 0.00 0.00 0.00 36 1017.7
20190426053704 60 226 5.2 12.2 0.00 0.00 0.00 37 1017.8
20190426053204 60 279 6.1 12.2 0.00 0.00 0.00 37 1017.7
20190426052705 60 295 5.2 13.9 0.00 0.00 0.00 38 1017.8
20190426052205 61 230 7.0 13.9 0.00 0.00 0.00 39 1018.0
20190426051704 61 273 7.8 13.9 0.00 0.00 0.00 38 1017.6
20190426051204 61 309 7.0 10.4 0.00 0.00 0.00 39 1017.7
20190426050704 62 277 5.2 9.6 0.00 0.00 0.00 39 1017.7
20190426050205 62 285 5.2 12.2 0.00 0.00 0.00 37 1017.8
20190426045704 62 244 6.1 12.2 0.00 0.00 0.00 36 1017.8
20190426045205 62 284 7.0 12.2 0.00 0.00 0.00 38 1017.8
20190426044705 62 298 6.1 14.8 0.00 0.00 0.00 37 1017.7
20190426044205 63 296 7.8 15.6 0.00 0.00 0.00 38 1017.7
20190426043704 63 323 10.4 15.6 0.00 0.00 0.00 38 1017.6
20190426043205 63 282 9.6 15.6 0.00 0.00 0.00 38 1017.5
20190426042705 63 285 8.7 14.8 0.00 0.00 0.00 39 1017.4
20190426042205 63 252 7.8 14.8 0.00 0.00 0.00 38 1017.5
20190426041705 63 306 6.1 13.0 0.00 0.00 0.00 39 1017.5
20190426041205 63 292 4.3 13.9 0.00 0.00 0.00 39 1017.4
20190426040705 63 240 5.2 14.8 0.00 0.00 0.00 39 1017.3
20190426040205 64 304 7.0 17.4 0.00 0.00 0.00 38 1017.1
20190426035704 64 277 8.7 18.2 0.00 0.00 0.00 39 1017.0
20190426035205 64 281 10.4 18.2 0.00 0.00 0.00 38 1017.0
20190426034704 64 332 11.3 18.2 0.00 0.00 0.00 37 1016.9
20190426034204 64 298 11.3 18.2 0.00 0.00 0.00 37 1016.8
20190426033705 65 277 11.3 17.4 0.00 0.00 0.00 39 1016.8
20190426033205 65 265 10.4 17.4 0.00 0.00 0.00 38 1016.7
20190426032705 65 302 9.6 17.4 0.00 0.00 0.00 39 1016.9
20190426032205 65 315 10.4 17.4 0.00 0.00 0.00 40 1016.8
20190426031704 65 319 9.6 17.4 0.00 0.00 0.00 39 1016.8
20190426031204 66 281 7.8 13.9 0.00 0.00 0.00 38 1016.8
20190426030704 66 290 7.8 14.8 0.00 0.00 0.00 37 1016.7
20190426030204 66 315 9.6 14.8 0.00 0.00 0.00 36 1016.7
20190426025705 67 324 8.7 18.2 0.00 0.00 0.00 35 1016.6
20190426025205 67 298 8.7 20.9 0.00 0.00 0.00 35 1016.4
20190426024705 67 284 11.3 20.9 0.00 0.00 0.00 34 1016.6
20190426024205 67 288 12.2 20.9 0.00 0.00 0.00 34 1016.6
20190426023705 68 284 12.2 21.7 0.00 0.00 0.00 34 1016.4
20190426023204 68 285 11.3 21.7 0.00 0.00 0.00 34 1016.4
20190426022705 68 277 11.3 21.7 0.00 0.00 0.00 34 1016.4
20190426022205 69 315 12.2 19.1 0.00 0.00 0.00 34 1016.3
20190426021704 69 281 12.2 19.1 0.00 0.00 0.00 34 1016.4
20190426021204 69 286 11.3 19.1 0.00 0.00 0.00 34 1016.3
20190426020704 69 308 11.3 19.1 0.00 0.00 0.00 34 1016.3
20190426020205 70 270 12.2 22.6 0.00 0.00 0.00 34 1016.3
20190426015705 70 302 12.2 22.6 0.00 0.00 0.00 34 1016.3
20190426015204 70 290 12.2 26.1 0.00 0.00 0.00 33 1016.3
20190426014705 71 311 12.2 26.1 0.00 0.00 0.00 32 1016.3
20190426014205 71 300 12.2 26.1 0.00 0.00 0.00 32 1016.4
20190426013705 71 318 11.3 19.1 0.00 0.00 0.00 31 1016.3
20190426013204 71 298 11.3 19.1 0.00 0.00 0.00 31 1016.3
20190426012704 72 302 10.4 22.6 0.00 0.00 0.00 31 1016.3
20190426012204 72 294 12.2 22.6 0.00 0.00 0.00 31 1016.3
20190426011704 72 284 12.2 22.6 0.00 0.00 0.00 31 1016.2
20190426011206 73 282 10.4 20.9 0.00 0.00 0.00 30 1016.3
20190426010705 73 315 11.3 20.9 0.00 0.00 0.00 30 1016.3
20190426010208 73 297 12.2 22.6 0.00 0.00 0.00 30 1016.3
20190426005705 73 303 13.0 22.6 0.00 0.00 0.00 30 1016.2
20190426005206 74 258 13.0 22.6 0.00 0.00 0.00 29 1016.3
20190426004704 75 317 11.3 20.9 0.00 0.00 0.00 29 1016.2
20190426004205 76 277 9.6 20.9 0.00 0.00 0.00 28 1016.3
20190426003705 76 294 7.8 18.2 0.00 0.00 0.00 27 1016.3
20190426003204 76 257 9.6 18.2 0.00 0.00 0.00 26 1016.4
20190426002704 77 263 9.6 18.2 0.00 0.00 0.00 26 1016.3
20190426002205 77 275 9.6 16.5 0.00 0.00 0.00 27 1016.3
20190426001705 76 250 9.6 22.6 0.00 0.00 0.00 27 1016.4
20190426001204 76 302 10.4 22.6 0.00 0.00 0.00 26 1016.4
20190426000705 77 311 11.3 19.1 0.00 0.00 0.00 25 1016.4
20190426000213 77 318 10.4 19.1 0.00 0.00 0.00 26 1016.3
20190425235705 77 287 9.6 18.2 0.00 0.00 0.00 25 1016.3
20190425235204 78 300 9.6 18.2 0.00 0.00 0.00 26 1016.3
20190425234704 78 244 8.7 19.1 0.00 0.00 0.00 26 1016.4
20190425234204 78 284 9.6 19.1 0.00 0.00 0.00 26 1016.4
20190425233705 78 254 9.6 19.1 0.00 0.00 0.00 26 1016.4
20190425233205 78 294 8.7 19.1 0.00 0.00 0.00 24 1016.3
20190425232704 78 213 8.7 19.1 0.00 0.00 0.00 25 1016.4
20190425232205 78 259 8.7 16.5 0.00 0.00 0.00 26 1016.6
20190425231704 79 280 7.8 20.0 0.00 0.00 0.00 26 1016.7
20190425231205 78 286 7.8 20.0 0.00 0.00 0.00 26 1016.4
20190425230704 78 287 9.6 22.6 0.00 0.00 0.00 26 1016.6
20190425230206 78 294 10.4 22.6 0.00 0.00 0.00 25 1016.6
20190425225705 78 269 11.3 22.6 0.00 0.00 0.00 26 1016.7
20190425225205 78 278 11.3 20.9 0.00 0.00 0.00 26 1016.7
20190425224704 79 290 7.8 19.1 0.00 0.00 0.00 25 1016.7
20190425224204 78 290 8.7 17.4 0.00 0.00 0.00 26 1016.7
20190425223704 78 264 10.4 17.4 0.00 0.00 0.00 26 1016.7
20190425223204 79 283 9.6 20.0 0.00 0.00 0.00 26 1016.8
20190425222704 79 277 11.3 20.0 0.00 0.00 0.00 27 1016.8
20190425222204 78 315 11.3 20.9 0.00 0.00 0.00 25 1016.8
20190425221704 78 303 10.4 20.9 0.00 0.00 0.00 24 1016.9
20190425221204 78 300 10.4 17.4 0.00 0.00 0.00 24 1016.9
20190425220704 79 283 9.6 17.4 0.00 0.00 0.00 24 1017.0
20190425220205 79 286 8.7 17.4 0.00 0.00 0.00 24 1017.0
20190425215704 80 311 7.0 13.9 0.00 0.00 0.00 23 1017.0
20190425215205 80 327 7.0 14.8 0.00 0.00 0.00 22 1017.1
20190425214704 79 261 7.8 14.8 0.00 0.00 0.00 24 1017.1
20190425214205 79 320 7.0 16.5 0.00 0.00 0.00 22 1017.1
20190425213705 80 286 7.0 16.5 0.00 0.00 0.00 23 1017.1
20190425213205 78 235 7.0 16.5 0.00 0.00 0.00 27 1017.3
20190425212704 78 317 3.5 8.7 0.00 0.00 0.00 24 1017.1
20190425212204 77 337 2.6 7.0 0.00 0.00 0.00 25 1017.4
20190425211705 78 317 3.5 7.0 0.00 0.00 0.00 24 1017.4
20190425211205 79 250 3.5 10.4 0.00 0.00 0.00 26 1017.5
20190425210705 79 175 4.3 10.4 0.00 0.00 0.00 25 1017.5
20190425210205 79 153 4.3 10.4 0.00 0.00 0.00 25 1017.5
20190425205705 77 103 3.5 7.8 0.00 0.00 0.00 26 1017.5
20190425205204 77 92 2.6 9.6 0.00 0.00 0.00 24 1017.6
20190425204704 76 150 3.5 9.6 0.00 0.00 0.00 26 1017.6
20190425204205 76 283 3.5 8.7 0.00 0.00 0.00 24 1017.6
20190425203705 77 184 2.6 7.8 0.00 0.00 0.00 26 1017.6
20190425203204 77 5 3.5 7.8 0.00 0.00 0.00 27 1017.7
20190425202704 76 355 3.5 7.0 0.00 0.00 0.00 26 1017.7
20190425202205 76 51 3.5 10.4 0.00 0.00 0.00 26 1017.8
20190425201704 76 9 5.2 10.4 0.00 0.00 0.00 27 1017.8
20190425201205 76 321 6.1 10.4 0.00 0.00 0.00 25 1018.0
20190425200705 76 296 4.3 8.7 0.00 0.00 0.00 27 1017.7
20190425200204 77 12 3.5 8.7 0.00 0.00 0.00 28 1018.0
20190425195705 76 351 3.5 10.4 0.00 0.00 0.00 28 1018.0
20190425195205 75 327 4.3 10.4 0.00 0.00 0.00 27 1018.1
20190425194704 74 54 4.3 10.4 0.00 0.00 0.00 27 1018.1
20190425194204 75 306 3.5 9.6 0.00 0.00 0.00 28 1018.1
20190425193705 75 123 3.5 9.6 0.00 0.00 0.00 29 1018.2
20190425193205 74 348 3.5 8.7 0.00 0.00 0.00 27 1018.3
20190425192704 74 69 3.5 7.0 0.00 0.00 0.00 29 1018.3
20190425192205 74 56 2.6 6.1 0.00 0.00 0.00 28 1018.4
20190425191705 74 35 2.6 6.1 0.00 0.00 0.00 30 1018.4
20190425191204 74 105 2.6 7.0 0.00 0.00 0.00 28 1018.4
20190425190704 74 281 2.6 7.8 0.00 0.00 0.00 25 1018.5
20190425190205 75 94 2.6 7.8 0.00 0.00 0.00 25 1018.6
20190425185705 75 130 2.6 7.0 0.00 0.00 0.00 29 1018.6
20190425185205 73 5 2.6 7.0 0.00 0.00 0.00 30 1018.6
20190425184704 73 117 1.7 7.0 0.00 0.00 0.00 32 1018.8
20190425184205 73 142 2.6 7.0 0.00 0.00 0.00 34 1018.8
20190425183705 73 136 2.6 7.0 0.00 0.00 0.00 33 1018.8
20190425183204 73 105 2.6 6.1 0.00 0.00 0.00 35 1018.8
20190425182706 73 32 2.6 7.0 0.00 0.00 0.00 32 1018.9
20190425182205 72 172 2.6 7.0 0.00 0.00 0.00 32 1018.9
20190425181705 71 0 1.7 4.3 0.00 0.00 0.00 31 1019.0
20190425181205 72 151 1.7 4.3 0.00 0.00 0.00 32 1019.1
20190425180704 71 13 1.7 7.0 0.00 0.00 0.00 31 1019.1
20190425180204 72 40 2.6 7.0 0.00 0.00 0.00 32 1019.1
20190425175705 71 323 2.6 4.3 0.00 0.00 0.00 35 1019.1
20190425175205 70 23 1.7 4.3 0.00 0.00 0.00 35 1019.1
20190425174705 70 17 1.7 4.3 0.00 0.00 0.00 35 1019.1
20190425174204 69 45 1.7 4.3 0.00 0.00 0.00 35 1019.1
20190425173705 69 0 1.7 4.3 0.00 0.00 0.00 36 1019.1
20190425173204 70 42 1.7 2.6 0.00 0.00 0.00 35 1019.2
20190425172705 70 119 1.7 2.6 0.00 0.00 0.00 36 1019.2
20190425172205 70 122 0.9 4.3 0.00 0.00 0.00 36 1019.2
20190425171705 69 142 1.7 4.3 0.00 0.00 0.00 38 1019.2
20190425171204 68 89 1.7 4.3 0.00 0.00 0.00 39 1019.2
20190425170705 68 176 1.7 3.5 0.00 0.00 0.00 37 1019.2
20190425170205 67 146 0.9 4.3 0.00 0.00 0.00 40 1019.2
20190425165705 67 129 0.9 4.3 0.00 0.00 0.00 40 1019.2
20190425165230 66 32 1.7 4.3 0.00 0.00 0.00 41 1019.2
20190425164704 66 175 1.7 5.2 0.00 0.00 0.00 41 1019.2
20190425164205 66 128 1.7 5.2 0.00 0.00 0.00 42 1019.2
20190425163705 65 57 1.7 5.2 0.00 0.00 0.00 40 1019.2
20190425163205 65 109 1.7 5.2 0.00 0.00 0.00 43 1019.3
20190425162704 64 83 1.7 5.2 0.00 0.00 0.00 44 1019.3
20190425162205 64 126 1.7 5.2 0.00 0.00 0.00 44 1019.2
20190425161705 64 155 1.7 5.2 0.00 0.00 0.00 44 1019.3
20190425161204 63 112 1.7 3.5 0.00 0.00 0.00 47 1019.3
20190425160704 62 142 1.7 5.2 0.00 0.00 0.00 48 1019.3
20190425160204 62 75 1.7 5.2 0.00 0.00 0.00 47 1019.3
20190425155705 62 112 1.7 5.2 0.00 0.00 0.00 48 1019.3
20190425155204 62 117 1.7 3.5 0.00 0.00 0.00 51 1019.3
20190425154704 61 170 1.7 3.5 0.00 0.00 0.00 53 1019.5
20190425154204 60 120 1.7 3.5 0.00 0.00 0.00 53 1019.5
20190425153704 60 108 1.7 3.5 0.00 0.00 0.00 56 1019.5
20190425153204 60 145 1.7 3.5 0.00 0.00 0.00 55 1019.5
20190425152704 59 154 0.9 2.6 0.00 0.00 0.00 54 1019.5
20190425152205 59 175 0.9 2.6 0.00 0.00 0.00 56 1019.5
20190425151704 58 204 0.9 2.6 0.00 0.00 0.00 56 1019.5
20190425151205 58 237 0.9 1.7 0.00 0.00 0.00 57 1019.5
20190425150705 57 291 0.9 1.7 0.00 0.00 0.00 58 1019.5
20190425150204 55 291 0.9 3.5 0.00 0.00 0.00 59 1019.3
20190425145704 54 291 0.9 3.5 0.00 0.00 0.00 60 1019.3
20190425145205 53 291 1.7 3.5 0.00 0.00 0.00 63 1019.3
20190425144704 52 288 1.7 3.5 0.00 0.00 0.00 64 1019.3
20190425144208 51 282 1.7 3.5 0.00 0.00 0.00 65 1019.3
20190425143704 51 263 1.7 3.5 0.00 0.00 0.00 66 1019.3
20190425143205 51 248 1.7 2.6 0.00 0.00 0.00 66 1019.3
20190425142705 51 248 0.9 2.6 0.00 0.00 0.00 67 1019.2
20190425142205 50 248 1.7 2.6 0.00 0.00 0.00 68 1019.1
20190425141704 50 248 1.7 2.6 0.00 0.00 0.00 70 1019.1
20190425141204 49 241 0.9 2.6 0.00 0.00 0.00 72 1019.0
20190425140705 49 261 0.9 2.6 0.00 0.00 0.00 72 1019.0
20190425140205 49 278 0.9 2.6 0.00 0.00 0.00 72 1019.0
20190425135705 48 280 0.9 1.7 0.00 0.00 0.00 73 1018.9
20190425135204 48 282 0.9 1.7 0.00 0.00 0.00 73 1018.9
20190425134705 48 282 0.9 1.7 0.00 0.00 0.00 73 1018.9
20190425134204 47 282 0.9 2.6 0.00 0.00 0.00 73 1018.9
20190425133704 47 282 1.7 2.6 0.00 0.00 0.00 73 1018.8
20190425133205 47 282 0.9 2.6 0.00 0.00 0.00 72 1018.8
20190425132705 47 282 0.9 1.7 0.00 0.00 0.00 71 1018.8
20190425132206 47 282 0.9 2.6 0.00 0.00 0.00 71 1018.8
20190425131704 47 282 0.9 2.6 0.00 0.00 0.00 71 1018.6
20190425131204 47 282 1.7 2.6 0.00 0.00 0.00 70 1018.5
20190425130705 47 282 0.9 2.6 0.00 0.00 0.00 70 1018.6
20190425130205 47 282 1.7 3.5 0.00 0.00 0.00 69 1018.5
20190425125704 47 282 2.6 3.5 0.00 0.00 0.00 68 1018.5
20190425125205 47 282 2.6 3.5 0.00 0.00 0.00 68 1018.4
20190425124705 48 282 2.6 3.5 0.00 0.00 0.00 67 1018.4
20190425124204 48 282 2.6 3.5 0.00 0.00 0.00 66 1018.4
20190425123705 49 282 1.7 2.6 0.00 0.00 0.00 67 1018.3
20190425123204 49 282 0.9 2.6 0.00 0.00 0.00 67 1018.3
20190425122704 49 282 0.9 2.6 0.00 0.00 0.00 67 1018.3
20190425122205 49 282 1.7 2.6 0.00 0.00 0.00 67 1018.3
20190425121705 49 282 1.7 2.6 0.00 0.00 0.00 66 1018.3
20190425121205 49 282 1.7 2.6 0.00 0.00 0.00 65 1018.4
20190425120705 49 282 1.7 2.6 0.00 0.00 0.00 64 1018.4
20190425120204 49 282 1.7 3.5 0.00 0.00 0.00 64 1018.4
20190425115705 49 282 1.7 3.5 0.00 0.00 0.00 65 1018.4
20190425115205 48 282 2.6 6.1 0.00 0.00 0.00 67 1018.3
20190425114705 48 282 3.5 6.1 0.00 0.00 0.00 67 1018.4
20190425114205 48 282 3.5 6.1 0.00 0.00 0.00 67 1018.4
20190425113705 48 287 3.5 5.2 0.00 0.00 0.00 66 1018.4
20190425113204 49 279 2.6 6.1 0.00 0.00 0.00 65 1018.4
20190425112704 49 278 3.5 7.0 0.00 0.00 0.00 65 1018.4
20190425112204 49 278 4.3 7.0 0.00 0.00 0.00 65 1018.4
20190425111705 49 278 4.3 7.0 0.00 0.00 0.00 64 1018.4
20190425111205 50 285 3.5 6.1 0.00 0.00 0.00 63 1018.4
20190425110705 50 292 2.6 4.3 0.00 0.00 0.00 63 1018.4
20190425110204 51 289 1.7 3.5 0.00 0.00 0.00 63 1018.3
20190425105704 51 281 1.7 2.6 0.00 0.00 0.00 63 1018.3
20190425105204 51 281 1.7 2.6 0.00 0.00 0.00 64 1018.4
20190425104705 51 281 0.9 2.6 0.00 0.00 0.00 65 1018.4
20190425104205 51 281 1.7 2.6 0.00 0.00 0.00 65 1018.4
20190425103704 51 281 1.7 2.6 0.00 0.00 0.00 65 1018.4
20190425103205 51 281 0.9 1.7 0.00 0.00 0.00 64 1018.4